Location: Banios
(43.0451°N, 0.2335°E)
Time: 16:59:58
(UTC+00:00)

USA 238 - Visible Passes

Search period start: 14 May 2021 00:00
Search period end: 24 May 2021 00:00
Orbit: 994 x 1218 km, 63.4° (Epoch: 18 April)

Date Brightness Start Highest point End Pass type
(mag) Time Alt. Az. Time Alt. Az. Time Alt. Az.
14 May 5.2 02:50:54 10° SSE 02:56:09 26° ESE 03:01:33 10° ENE visible
15 May 5.7 02:08:11 10° SE 02:11:47 16° ESE 02:15:29 10° ENE visible
15 May 3.7 03:55:07 10° SSW 04:01:39 86° SE 04:08:31 10° NE visible
16 May 4.1 03:11:00 12° SSW 03:16:56 56° ESE 03:23:34 10° NE visible
17 May 4.7 02:27:48 15° S 02:32:23 35° ESE 02:38:23 10° NE visible
18 May 5.3 01:44:34 15° SE 01:47:58 22° ESE 01:52:49 10° ENE visible
18 May 3.7 03:32:01 12° SW 03:38:07 75° NW 03:45:00 10° NE visible
19 May 5.7 01:01:18 10° SE 01:03:40 12° ESE 01:06:04 10° E visible
19 May 3.7 02:48:43 21° SSW 02:53:18 74° ESE 03:00:08 10° NE visible
20 May 4.2 02:05:23 26° S 02:08:40 47° ESE 02:15:06 10° NE visible
20 May 4.4 03:53:31 10° WSW 03:59:41 41° NW 04:06:11 10° NNE visible
21 May 4.8 01:21:59 24° SE 01:24:10 29° ESE 01:29:48 10° NE visible
21 May 3.9 03:09:25 16° SW 03:14:38 59° NW 03:21:27 10° NNE visible
22 May 5.3 00:38:34 16° ESE 00:39:48 17° ESE 00:43:56 10° ENE visible
22 May 3.6 02:25:59 28° SW 02:29:45 87° NW 02:36:38 10° NE visible
23 May 3.8 01:42:31 38° S 01:45:01 62° ESE 01:51:43 10° NE visible
23 May 4.8 03:30:27 10° WSW 03:36:22 34° NW 03:42:35 10° NNE visible
